Location: Most
(50.5133°N, 13.6207°E)
Time: 00:03:35
(UTC+02:00)

ISS - Pass Details

Date: 29 September 2021
Orbit: 417 x 423 km, 51.6° (Epoch: 21 October)

Event Time Altitude Azimuth Distance (km) Brightness Sun altitude
Rises 20:12:35 0° 284° (WNW) 2,366 2.1 -14.2°
Reaches altitude 10° 20:14:41 10° 284° (WNW) 1,502 0.5 -14.5°
Maximum altitude 20:18:03 80° 198° (SSW) 431 -3.8 -15.1°
Enters shadow 20:19:21 35° 115° (ESE) 700 -3.2 -15.3°
